Location: Bir El Mhader
(16.3543°N, 9.2554°W)
Time: 18:48:57
(UTC+00:00)

Daily predictions for brighter satellites

Satellite Brightness Start Highest point End
(mag) Time Altitude Azimuth Time Altitude Azimuth Time Altitude Azimuth
Helios 1A Rocket 3.8 18:41:31 10° SE 18:45:02 28° ENE 18:48:33 10° NNE
Meteor 1-15 Rocket 4.2 18:41:39 10° S 18:47:13 71° E 18:52:53 10° NNE
CZ-4 R/B 2.8 18:44:15 10° ESE 18:47:18 20° ENE 18:50:19 10° NNE
SeaSat 1 2.5 18:43:02 10° SSE 18:47:54 66° ENE 18:52:47 10° NNW
CZ-2C R/B 1.2 18:45:25 10° NW 18:49:24 64° NNE 18:53:06 10° ESE
Milstar 3 4.3 18:46:36 10° S 18:51:08 18° SE 18:56:21 10° E
Cosmos 1674 4.2 18:49:26 10° NE 18:51:51 16° E 18:54:15 10° ESE
APEX 3.0 18:51:39 10° S 18:54:10 34° ESE 18:56:56 10° NE
GPS 2-18 Rocket1 4.1 18:51:09 10° SW 18:54:35 32° SSE 18:57:51 11° E
Cosmos 2034 Rocket 4.1 18:48:50 10° S 18:55:12 88° E 19:01:33 10° N
Cosmos 1536 Rocket 4.1 18:54:02 10° NNE 18:58:10 37° E 19:02:17 10° SSE
Aureole 2 Rocket 3.6 18:56:38 10° SSW 18:59:49 44° WNW 19:02:59 10° N
Cosmos 1048 Rocket 4.2 18:55:01 10° N 19:00:17 55° ENE 19:05:30 10° SSE
USA 276 3.3 18:58:50 10° S 19:01:30 25° SE 19:03:36 14° ENE
Cosmos 1766 3.3 18:59:19 10° S 19:03:08 57° E 19:07:00 10° NNE
Palapa B4 Rocket 3.0 19:02:01 10° WNW 19:05:52 87° N 19:10:13 14° E
ATLAS 5 CENTAUR R/B 0.2 19:06:45 10° WNW 19:08:25 36° N 19:09:41 19° ENE
Cosmos 1733 3.1 19:04:53 10° S 19:08:39 61° E 19:12:25 10° NNE
Centaur AC-119 2.5 19:03:25 10° WSW 19:10:38 71° NNW 19:12:39 16° ENE
MOS 1 Rocket 3.4 19:06:45 10° NNE 19:10:51 44° E 19:15:05 10° S
CZ-2C R/B 3.8 19:07:22 10° NE 19:11:31 21° E 19:15:36 10° SE
In-Cosmos 22 4.1 19:08:19 10° N 19:13:46 87° E 19:19:23 10° S
RESURS DK-1 3.1 19:10:42 10° SSW 19:14:43 55° WNW 19:18:46 10° N
CENTAUR R/B 3.6 19:06:46 10° N 19:14:55 44° ENE 19:23:06 10° SE
CZ-2D R/B 3.2 19:12:26 10° SSE 19:16:17 68° ENE 19:20:08 10° N
IRS-1C Rocket 4.2 19:11:08 10° S 19:16:23 81° WSW 19:21:37 10° NNW
Cosmos 1634 Rocket 4.1 19:11:06 10° SSE 19:17:03 52° E 19:23:00 10° NNE
NOSS 3-2 (C) 4.5 19:09:50 10° N 19:17:45 47° ENE 19:26:05 10° SE
Palapa 6 Rocket 4.0 19:14:14 10° WNW 19:18:04 32° N 19:20:28 17° NE
Cosmos 1939 Rocket 3.2 19:15:10 10° S 19:19:17 73° W 19:23:24 10° NNW
Milstar 3 Cent rocket 4.2 19:09:59 10° WNW 19:20:14 35° NNW 19:25:28 12° NE
GPS 2-17 Rocket1 2.9 19:16:55 10° WNW 19:21:19 82° NNE 19:23:58 24° E
X-37B 3.3 19:23:56 10° W 19:26:05 17° NW 19:28:15 10° N
SWAS 4.4 19:22:55 10° NNW 19:27:11 89° WSW 19:31:25 10° SSE
Meteor 2-5 Rocket 4.2 19:26:22 10° NNE 19:31:46 39° E 19:37:13 10° SSE
Okean-O 2.6 19:28:05 10° S 19:32:30 83° WSW 19:36:56 10° NNW
ATLAS 3B R/B 4.4 19:29:28 10° NNE 19:31:52 13° NE 19:31:52 13° NE
NATO 3D Rocket 4.3 19:25:20 10° W 19:32:45 58° N 19:36:03 25° ENE
CZ-2C R/B 3.1 19:32:12 10° SSE 19:37:21 59° ENE 19:42:47 10° N
COSMOS 2455 3.5 19:32:02 10° SSW 19:37:54 57° WNW 19:43:49 10° N
H-2A R/B 2.3 19:36:32 24° SE 19:38:59 40° ENE 19:43:42 10° N
Cosmos 1455 Rocket 3.3 19:35:04 10° SSE 19:39:13 43° E 19:43:22 10° NNE
Cosmos 1269 Rocket 4.4 19:35:29 10° N 19:40:26 40° ENE 19:41:53 33° ESE
Cosmos 2026 Rocket 4.3 19:37:57 10° NNE 19:43:52 40° E 19:48:23 16° SSE
Cosmos 2279 Rocket 4.0 19:39:39 10° SSE 19:45:42 54° E 19:51:46 10° NNE
Cosmos 1092 Rocket 3.9 19:45:35 10° N 19:51:47 70° E 19:58:03 10° S
USA 215 3.7 19:48:43 10° SSE 19:55:08 60° SW 20:01:35 10° NW
Cosmos 2297 3.6 19:53:41 10° S 19:59:21 70° ESE 20:02:36 26° NNE
CSL-04 Rocket 3.6 19:58:08 10° SSE 20:03:33 90° WNW 20:09:03 10° NNW
Meteor 2-13 Rocket 4.5 20:00:29 10° N 20:06:35 77° W 20:12:38 10° S
DMSP B5D2-2 3.9 20:03:13 10° NNE 20:08:28 74° E 20:13:41 10° S
CSL-04 Debris 4.3 20:04:07 10° S 20:09:28 72° WSW 20:14:50 10° NNW
YAOGAN 1 4.1 20:06:09 10° SSW 20:10:04 35° W 20:14:01 10° NW
Cosmos 1943 Rocket 4.2 20:08:43 10° S 20:09:25 14° S 20:09:25 14° S
Skynet4D Del rocket 4.1 20:09:06 10° WSW 20:16:55 85° SSE 20:18:05 65° ENE
Centaur D-1AR AC-40 2.2 20:07:38 10° WNW 20:18:06 71° N 20:18:14 70° NNE
GOES 2 Rocket 4.1 20:13:53 10° WNW 20:16:56 38° NNW 20:16:56 38° NNW
H-10 deb 4.4 19:34:16 10° WSW 20:21:47 45° SSW 20:24:14 37° SSE
Cosmos 1833 Rocket 4.4 20:16:34 10° N 20:18:21 20° N 20:18:21 20° N
CZ-4 R/B 4.2 20:19:12 10° SW 20:22:05 18° W 20:24:57 10° NW
GPS 2-15 Rocket1 3.9 20:20:05 10° WSW 20:23:45 51° WSW 20:23:45 51° WSW
COSMOS 2406 4.0 20:22:57 10° NNW 20:26:32 40° N 20:26:32 40° N
CZ-2C R/B 3.9 20:26:48 10° WSW 20:28:06 13° SW 20:28:06 13° SW
ARGOS 3.7 20:32:25 53° NW 20:32:25 53° NW 20:36:33 10° NNW
USA 234 4.0 20:40:02 38° SSW 20:40:02 38° SSW 20:43:57 10° SSW
CZ-2C R/B 4.4 20:46:45 10° NNW 20:51:36 31° WNW 20:56:25 10° SW
ATLAS 3B R/B 4.4 21:16:30 10° NNW 21:19:10 25° NNW 21:19:10 25° NNW
Milstar 3 4.2 21:26:35 10° WSW 21:30:32 39° WSW 21:30:32 39° WSW
